Weather History for Fort Lauderdale, FL

Change the Weather History Date:

Friday, December 21, 2012

  Actual Average Record
Temperature  
Mean Temperature 62 °F -  
Max Temperature 71 °F 79 °F 86 °F (1948)
Min Temperature 50 °F 61 °F 33 °F (1954)
Degree Days  
Heating Degree Days 4    
Growing Degree Days 12 (Base 50)    
Moisture  
Dew Point 49 °F    
Average Humidity 61    
Maximum Humidity 94    
Minimum Humidity 30    
Precipitation  
Precipitation 0.00 in - - ()
Sea Level Pressure  
Sea Level Pressure 30.07 in    
Wind  
Wind Speed 9 mph (WNW)    
Max Wind Speed 17 mph    
Max Gust Speed 32 mph    
Visibility 10 miles    
Events Rain    
Averages and records for this station are not official NWS values.
T = Trace of Precipitation, MM = Missing Value Source: NWS Daily Summary

Daily Weather History Graph

Daily Weather History Graph

Search for Another Location

Airport:

Trip Planner

Search our weather history database for the weather conditions in past years. The results will help you decide how hot, cold, wet, or windy it might be!

Date:

Astronomy

Dec. 21, 2012 Rise Set
Actual Time 7:04 AM EST 5:34 PM EST
Civil Twilight 6:38 AM EST 5:59 PM EST
Nautical Twilight 6:09 AM EST 6:28 PM EST
Astronomical Twilight 5:41 AM EST 6:56 PM EST
Moon 12:59 PM EST (12/21) 1:12 AM EST (12/21)
Length of Visible Light 11h 20m
Length of Day
10h 29m
Waxing Gibbous, 64% of the Moon is Illuminated
Dec 21
Waxing Gibbous
Dec 28
Full
Jan 4
Last Quarter
Jan 11
New
Jan 18
First Quarter

Hourly Weather History & Observations

Time (EST) Temp. Dew Point Humidity Pressure Visibility Wind Dir Wind Speed Gust Speed Precip Events Conditions
12:53 AM 69.1 °F 64.9 °F 87% 30.03 in 10.0 mi WSW 5.8 mph - N/A   Clear
1:53 AM 71.1 °F 66.0 °F 84% 30.01 in 10.0 mi SSW 4.6 mph - N/A   Clear
2:53 AM 70.0 °F 66.0 °F 87% 29.99 in 10.0 mi SSW 5.8 mph - N/A   Clear
3:53 AM 70.0 °F 66.0 °F 87% 29.98 in 10.0 mi SW 5.8 mph - N/A   Clear
4:53 AM 70.0 °F 66.9 °F 90% 29.97 in 10.0 mi SW 4.6 mph - N/A   Clear
5:53 AM 71.1 °F 68.0 °F 90% 29.98 in 10.0 mi SW 5.8 mph - N/A   Partly Cloudy
6:34 AM 71.6 °F 69.8 °F 94% 29.99 in 10.0 mi West 11.5 mph - 0.00 in Rain Light Rain
6:53 AM 71.1 °F 66.9 °F 87% 30.01 in 10.0 mi WNW 12.7 mph 21.9 mph 0.00 in   Overcast
7:06 AM 66.2 °F 62.6 °F 88% 30.01 in 10.0 mi NW 11.5 mph 23.0 mph N/A   Overcast
7:53 AM 66.0 °F 57.9 °F 75% 30.05 in 10.0 mi NW 11.5 mph 23.0 mph N/A   Overcast
8:53 AM 64.0 °F 53.1 °F 67% 30.08 in 10.0 mi WNW 12.7 mph 20.7 mph N/A   Mostly Cloudy
9:53 AM 64.9 °F 52.0 °F 63% 30.11 in 10.0 mi WNW 8.1 mph 17.3 mph N/A   Scattered Clouds
10:53 AM 64.0 °F 44.1 °F 48% 30.12 in 10.0 mi NW 12.7 mph 32.2 mph N/A   Scattered Clouds
11:53 AM 64.0 °F 39.9 °F 41% 30.11 in 10.0 mi NW 12.7 mph 24.2 mph N/A   Scattered Clouds
12:53 PM 64.9 °F 37.0 °F 36% 30.09 in 10.0 mi NW 17.3 mph 25.3 mph N/A   Scattered Clouds
1:53 PM 66.0 °F 37.0 °F 34% 30.06 in 10.0 mi NNW 12.7 mph 29.9 mph N/A   Clear
2:53 PM 66.9 °F 37.0 °F 33% 30.06 in 10.0 mi NW 11.5 mph 25.3 mph N/A   Scattered Clouds
3:53 PM 66.0 °F 34.0 °F 30% 30.07 in 10.0 mi NW 12.7 mph 21.9 mph N/A   Clear
4:53 PM 64.9 °F 35.1 °F 33% 30.08 in 10.0 mi NW 15.0 mph 23.0 mph N/A   Clear
5:53 PM 62.1 °F 36.0 °F 38% 30.09 in 10.0 mi WNW 9.2 mph - N/A   Clear
6:53 PM 61.0 °F 36.0 °F 39% 30.11 in 10.0 mi WNW 6.9 mph - N/A   Clear
7:53 PM 59.0 °F 34.0 °F 39% 30.12 in 10.0 mi WNW 9.2 mph - N/A   Clear
8:53 PM 57.0 °F 35.1 °F 44% 30.16 in 10.0 mi WNW 11.5 mph 18.4 mph N/A   Clear
9:53 PM 54.0 °F 37.9 °F 55% 30.17 in 10.0 mi WNW 9.2 mph 19.6 mph N/A   Clear
10:53 PM 52.0 °F 39.0 °F 61% 30.18 in 10.0 mi WNW 8.1 mph - N/A   Clear
11:53 PM 50.0 °F 39.9 °F 68% 30.19 in 10.0 mi NW 8.1 mph - N/A   Clear